Location: Caualo
(45.5667°N, 10.8667°E)
Time: 19:02:08
(UTC+00:00)

Cosmos 2221 - Pass Details

Date: 07 June 2020
Orbit: 594 x 615 km, 82.5° (Epoch: 06 July)

Event Time Altitude Azimuth Distance (km) Brightness Sun altitude
Rises 00:29:57 0° 359° (N) 2,881 7.3 -19.6°
Reaches altitude 10° 00:32:20 10° 8° (N) 1,975 6.3 -19.5°
Maximum altitude 00:36:21 35° 75° (ENE) 1,006 3.9 -19.2°
Enters shadow 00:39:27 15° 135° (SE) 1,658 4.5 -19.0°
